User: anonymous   Login
Location: ??????
(41.3164°N, 22.6615°E)
Time: 17:50:56
(UTC+00:00)
Language:

NOAA 16 DEB - Orbit

View from above orbital plane
View from above orbital plane
View from above satellite
View from above satellite

Ground track
Ground track

The orbit data is extracted from the following two-line orbital elements,

1 41128U 00055BK  22222.30255962  .00003263  00000-0  15883-2 0  9999
2 41128  99.0390 353.4882 0007275 254.1208 105.9165 14.18880274345062
Epoch (UTC): 10 August 2022 07:15:41
Eccentricity: 0.0007275
inclination: 99.0390°
perigee height: 824 km
apogee height: 834 km
right ascension of ascending node: 353.4882°
argument of perigee: 254.1208°
revolutions per day: 14.18880274
mean anomaly at epoch: 105.9165°
orbit number at epoch: 34506

The dashed part of the orbit path shows where the satellite is in the earth's shadow,  

DLR